STARLINK-1369 (45541 NORAD) Tracking and Keplerian Element Data

This shows tracking and keplerian element data for the satellite.

Feedback or suggestion? Click here.




ElementValue
Catalog45541
NameSTARLINK-1369
Epoch Orbit546
Epoch Day144.08334491
Epoch Year2020
RAAN251.0175
Inclination52.9962
Eccentricity0.0002746
Argument of Perigee142.9312
Mean Anonmoly357.79
Mean Motion15.46570784
Decay Rate0.00671496
L11 45541U 20025L 20144.08334491 .00671496 00000-0 12340-1 0 9995
L22 45541 52.9962 251.0175 0002746 142.9312 357.7900 15.46570784 5469

Live tracking and technical data element details for STARLINK-1369 (NORAD 45541). STARLINK-1369 can be tracked NOW for your location showing map with azimuth and elevation plus other details from your city location.

Track the satellite on the map from your city or location and see movement details for azimuth, elevation, latitude, longitude, range, height, and movement on the map or in text.







IsCatalogInMostPopularTable: catalog: 45541, numindb: 6
Update: records affected: 1



GetName: 45541 STARLINK-1369

Hit Count: updated at: Mon, 25 May 2020 07:42:54 GMT